Overview Statistics Trail Chart Weather Telemetry Raw packets
 

This is the latest recevied weather packets stored in our database for station/object YC0ACE-13. If no packets are shown the sender has not sent any weather packets the latest 10 day(s).

<< 1 2 3 4 5 >>
Time Temp. Humidity Pressure Rain* Wind** Luminosity Snow
1788572125 28.33° C 67% 1015.2 hPa 0 mm - 371 W/m² -
1788571824 28.33° C 68% 1015.2 hPa 0 mm - 353 W/m² -
1788571525 28.89° C 67% 1015.2 hPa 0 mm - 331 W/m² -
1788571224 28.33° C 69% 1015.2 hPa 0 mm - 314 W/m² -
1788570924 28.33° C 69% 1015.2 hPa 0 mm - 303 W/m² -
1788570635 27.78° C 70% 1015.6 hPa 0 mm - 288 W/m² -
1788570324 27.78° C 69% 1014.9 hPa 0 mm - 260 W/m² -
1788570025 27.78° C 68% 1014.9 hPa 0 mm - 244 W/m² -
1788569724 27.78° C 69% 1014.9 hPa 0 mm - 251 W/m² -
1788569424 27.22° C 69% 1014.9 hPa 0 mm - 230 W/m² -
1788569125 27.22° C 69% 1015.2 hPa 0 mm - 212 W/m² -
1788568853 27.22° C 69% 1015.2 hPa 0 mm - 193 W/m² -
1788568524 27.22° C 69% 1015.2 hPa 0 mm - 142 W/m² -
1788568224 26.67° C 70% 1015.2 hPa 0 mm - 157 W/m² -
1788567925 26.67° C 70% 1014.9 hPa 0 mm - 128 W/m² -
1788567626 26.67° C 70% 1014.9 hPa 0 mm - 133 W/m² -
1788567324 26.67° C 69% 1015.2 hPa 0 mm - 125 W/m² -
1788567026 26.67° C 70% 1014.9 hPa 0 mm - 106 W/m² -
1788566724 26.67° C 70% 1014.6 hPa 0 mm - 98 W/m² -
1788566425 26.11° C 70% 1014.9 hPa 0 mm - 88 W/m² -
1788566124 26.11° C 70% 1014.9 hPa 0 mm - 78 W/m² -
1788565825 26.11° C 71% 1014.6 hPa 0 mm - 69 W/m² -
1788565524 26.11° C 71% 1014.6 hPa 0 mm - 61 W/m² -
1788565224 26.11° C 71% 1014.6 hPa 0 mm - 54 W/m² -
1788564924 26.11° C 71% 1014.6 hPa 0 mm - 47 W/m² -

* Rain latest hour (hover to see other rain measurements)
** Current wind speed in m/s (hover to see current wind gust speed)